Find Starlink 6326

NORAD ID: 56787 Int'l Des: 2023-078 Owner: SPXS Country: US Constellation: starlink operational
LEOCIRCULAR

当前视图

正在加载3D地球...

About Starlink 6326

Starlink 6326 (NORAD 56787) is a starlink constellation satellite (v1.5) launched May 31, 2023 by SPXS of US. It operates in LEO, CIRCULAR orbit with a mass of 305.00 kg.

关于 Starlink 6326

正在加载描述...

即将过境

Passes for default location (London). Set your location on the main map for personalized predictions.

高度历史

Loading altitude history...

两行轨道根数

1 56787U 23078W 26170.75065449 .00000110 00000-0 16988-4 0 9997
2 56787 70.0001 67.0349 0002809 264.4919 95.5920 14.98335733168467
Epoch: Jun 19, 2026 • Age: 12 hours

当前状态

高度 576.4 km
速度 7.58 km/s
星下点 31.56°N, 123.75°W
发射日期 May 31, 2023
运行时间 3 years
类型 internet

技术详情

分类 Payload
质量 305.00 kg
干质量 290.00 kg
总质量 305.00 kg
长度 0.20 m
直径 2.80 m
跨度 9.00 m
形状 Box + pan
制造商 SPXS
平台类型 Starlink
阶段状态 In Orbit
所有者/国家 SPXS/US

Most Searched